Location: Echo Hill Outdoor School
(39.3621°N, 76.1137°W)
Time: 12:50:06
(UTC-05:00)

OTV 5 (USA 277) - Visible Passes

Search period start: 19 November 2017 00:00
Search period end: 29 November 2017 00:00
Orbit: 404 x 417 km, 43.0° (Epoch: 07 September)

Date Brightness Start Highest point End Pass type
(mag) Time Alt. Az. Time Alt. Az. Time Alt. Az.
19 Nov ? 04:15:55 13° E 04:15:55 13° E 04:16:25 10° E visible
19 Nov ? 05:48:41 21° W 05:50:31 45° SSW 05:53:39 10° SE visible
20 Nov ? 05:00:10 50° SE 05:00:10 50° SE 05:02:45 10° ESE visible
21 Nov ? 04:11:41 10° ESE 04:11:41 10° ESE 04:11:44 10° ESE visible
21 Nov ? 05:44:28 17° WSW 05:45:27 19° SW 05:47:54 10° SSE visible
22 Nov ? 04:56:03 20° SSE 04:56:03 20° SSE 04:57:26 10° SSE visible
